Location: Allisons_Woods
(35.8920°N, 81.8170°W)
Time: 08:57:48
(UTC-04:00)

Daily predictions for brighter satellites

Satellite Brightness Start Highest point End
(mag) Time Altitude Azimuth Time Altitude Azimuth Time Altitude Azimuth
Cosmos 2369 Rocket 3.8 20:55:53 10° NW 21:01:00 36° WSW 21:06:07 10° SSW
Cosmos 2315 Rocket 4.2 20:57:31 10° S 21:03:47 81° W 21:10:09 10° N
Cosmos 1544 Rocket 3.5 21:00:15 10° N 21:04:36 85° E 21:08:54 10° S
Cosmos 1943 Rocket 2.6 20:59:10 10° NNW 21:04:43 66° WSW 21:10:11 10° S
Aureole 1 Rocket 3.1 21:04:29 10° S 21:07:34 31° ESE 21:10:20 10° NE
Resurs 1-3 3.8 21:08:29 10° S 21:12:51 74° WSW 21:17:15 10° NNW
Cosmos 405 Rocket 2.7 21:10:32 10° S 21:14:12 57° E 21:17:57 10° NNE
DEBRIS 3.4 21:14:08 10° WSW 21:16:54 73° NNW 21:24:39 10° NE
Cosmos 1500 3.8 21:14:37 10° NNW 21:18:19 56° W 21:21:58 10° S
Meteor 1-19 Rocket 4.3 21:12:51 10° S 21:18:36 64° E 21:24:16 10° NNE
Cosmos 923 Rocket 4.1 21:15:03 10° SSW 21:20:22 84° WNW 21:25:42 10° NNE
Tiangong 2 2.4 21:20:01 10° W 21:23:03 42° NNW 21:26:06 10° NE
Cosmos 1441 Rocket 3.8 21:19:39 10° SSE 21:23:04 35° E 21:26:30 10° NNE
ERS-1 Rocket 4.1 21:21:27 11° ESE 21:25:22 27° ENE 21:29:33 10° NNE
Resurs 01 Rocket 2.8 21:22:22 10° S 21:26:35 43° W 21:30:50 10° NNW
Cosmos 1455 Rocket 3.7 21:25:14 10° NNW 21:29:30 57° W 21:33:44 10° S
CENTAUR R/B 3.2 21:21:25 10° NNW 21:29:30 86° ENE 21:37:39 11° SSE
Nadezhda 1 Rocket 4.1 21:29:07 10° S 21:35:17 58° E 21:41:33 10° NNE
Meteor 1-29 2.8 21:32:45 10° NNE 21:36:07 77° ESE 21:39:28 10° S
COSMOS 2406 3.8 21:35:03 10° SSW 21:40:43 61° WNW 21:46:23 10° NNE
Cosmos 2082 Rocket 3.5 21:41:51 17° ESE 21:43:33 19° E 21:47:23 10° ENE
ASTRO E2 3.8 21:44:42 10° WSW 21:48:12 29° SSW 21:49:56 21° SSE
CZ-4B DEB 2.7 21:48:36 17° S 21:50:45 74° WSW 21:53:44 10° NNW
Cosmos 1743 3.3 21:47:05 10° NNW 21:50:55 57° W 21:54:43 10° S
CRYOSAT 2 4.5 21:48:53 16° SSE 21:52:34 57° E 21:57:19 10° N
Cosmos 2112 Rocket 4.4 21:47:46 10° SSW 21:52:56 65° WNW 21:58:07 10° N
Cosmos 2154 Rocket 4.4 21:47:20 10° N 21:53:28 48° E 21:57:43 20° SE
Cosmos 1238 Rocket 4.1 21:47:53 10° S 21:54:36 79° E 22:01:10 10° N
Aureole 3 Rocket 4.1 21:50:06 10° SSW 21:56:43 65° W 22:01:25 10° N
ISS -1.3 21:54:49 10° W 21:57:37 25° NNW 22:00:24 10° NNE
ASTEX 1 3.3 21:55:06 16° SSE 21:59:01 73° E 22:03:55 10° N
H-2A R/B 3.5 21:59:49 17° E 22:01:39 20° ENE 22:05:17 10° NNE
OAO 2 Rocket 3.2 21:56:56 10° W 22:01:52 80° S 22:05:07 22° E
Helios 1A 4.0 21:59:07 10° S 22:03:08 43° W 22:07:09 10° NNW
SL-27 R/B 4.1 22:02:23 10° SW 22:05:48 37° WNW 22:09:13 10° N
Cosmos 967 Rocket 4.4 22:00:01 10° SSW 22:06:13 72° ESE 22:12:29 10° NNE
Cosmos 1939 Rocket 3.8 22:04:16 12° S 22:07:39 43° W 22:11:21 10° NNW
YAOGAN 6 2.6 22:06:34 25° S 22:08:29 71° WSW 22:11:59 10° NNW
Cosmos 2228 4.5 22:05:39 10° NNE 22:08:54 21° ENE 22:09:27 20° E
Cosmos 921 Rocket 4.1 22:07:31 10° N 22:11:26 29° ENE 22:12:33 26° E
Cosmos 1666 3.7 22:09:55 10° NNW 22:13:29 43° W 22:16:14 15° SSW
Meteor 2-9 Rocket 4.3 22:09:26 10° NNW 22:14:57 76° W 22:19:13 18° S
Okean 1-7 Rocket 4.1 22:11:39 10° SSW 22:16:02 61° W 22:20:29 10° N
Cosmos 1892 Rocket 3.7 22:15:22 33° SSE 22:17:01 52° E 22:21:19 10° NNE
DNEPR-1 R/B 4.2 22:16:22 10° NW 22:20:34 50° WSW 22:22:55 26° S
Cosmos 1833 Rocket 3.2 22:19:03 31° SE 22:20:40 37° ESE 22:25:48 10° NE
Intercosmos 24 3.5 22:18:06 10° N 22:21:48 87° W 22:22:54 42° S
Cosmos 2056 Rocket 3.5 22:17:15 10° N 22:22:21 61° ENE 22:24:17 36° SE
NOSS 8 (E) 4.3 22:19:23 13° SSW 22:22:23 81° ESE 22:25:58 10° NNE
CZ-3B Rocket 4.1 22:18:25 10° SSW 22:39:10 - ESE 22:21:32 21° SSE
Cosmos 1437 Rocket 2.6 22:20:29 10° N 22:24:21 75° E 22:25:17 49° SSE
MetOp-A 4.1 22:23:24 30° SSE 22:26:07 82° ENE 22:31:31 10° N
Cosmos 2341 Rocket 4.1 22:20:01 10° N 22:26:20 65° E 22:29:28 31° SSE
Cosmos 1606 Rocket 3.4 22:27:43 10° N 22:32:03 83° E 22:33:15 47° SSE
PSLV R/B 3.2 22:30:00 10° WNW 22:32:59 72° N 22:32:59 72° N
Cosmos 1066 Rocket 4.5 22:34:17 39° SE 22:35:35 46° E 22:40:55 10° NNE
USA 245 4.2 22:42:20 27° N 22:42:20 27° N 22:43:34 10° N
Cosmos 1726 Rocket 3.4 22:37:27 10° N 22:41:47 88° E 22:42:37 58° S
Cosmos 1515 3.9 22:40:58 45° SSW 22:41:57 67° W 22:45:45 10° N
COSMOS 2487 2.4 22:43:44 76° WSW 22:43:54 79° WNW 22:47:29 10° NNE
CZ-3A R/B 2.8 22:44:47 10° WSW 22:48:01 23° NW 22:48:50 18° NNW
Landsat 7 4.1 22:52:27 46° E 22:52:50 47° ENE 22:57:24 10° N
SPOT 1/Viking Rocket 3.5 22:51:40 53° SE 22:52:51 76° ENE 22:58:00 10° N
YAOGAN 11 4.3 22:52:10 49° SSW 22:53:04 61° W 22:57:21 10° NNW
Cosmos 2181 Rocket 4.1 22:49:25 25° SSW 22:53:25 79° W 22:59:45 10° N
Cosmos 1452 Rocket 3.9 22:49:15 10° N 22:54:20 47° ENE 22:55:04 44° E
Cosmos 1980 Rocket 3.7 22:50:46 10° N 22:55:08 22° ENE 22:56:23 21° ENE
Cosmos 2058 Rocket 2.9 22:51:58 10° N 22:56:24 88° W 22:56:51 72° S
Tiangong 2 3.3 22:57:41 10° NW 23:00:16 22° N 23:00:58 21° NNE
ARGOS 3.4 22:58:31 40° SSW 23:00:21 64° WSW 23:05:45 10° NNW
ERS-1 Rocket 4.5 23:01:27 19° SW 23:04:00 29° W 23:08:22 10° NW
Terra 2.3 23:07:57 47° ENE 23:07:57 47° ENE 23:12:26 10° N
USA 267 4.4 23:02:25 10° ENE 23:05:41 25° E 23:05:41 25° E
SPOT 5 3.3 23:09:29 42° WSW 23:10:03 44° W 23:14:13 10° NNW
H-2A R/B 2.6 23:15:12 50° NE 23:15:12 50° NE 23:19:12 10° N
IGS 5A 4.2 23:18:14 45° NNE 23:18:14 45° NNE 23:21:29 10° N
Cosmos 468 4.4 23:17:24 71° SSW 23:18:01 89° WNW 23:23:19 10° NNE
Cosmos 1812 Rocket 4.5 23:15:06 10° N 23:18:32 40° NE 23:18:32 40° NE
Cosmos 864 Rocket 4.4 23:13:25 10° N 23:19:43 73° E 23:20:41 62° SE
Meteor 2-21 4.2 23:17:56 10° N 23:24:01 85° E 23:24:52 67° SSE
Cosmos 1626 Rocket 3.9 23:26:20 63° NNW 23:26:20 63° NNW 23:30:06 10° N
Cosmos 2082 Rocket 2.9 23:23:34 21° SW 23:27:09 51° WNW 23:32:40 10° N
Meteor 2-21 Rocket 4.3 23:22:02 10° N 23:28:04 73° E 23:28:37 69° ESE
Cosmos 2278 4.1 23:25:03 10° NNW 23:30:32 51° WSW 23:31:15 48° SW
SL-19 R/B 3.9 23:27:51 10° NNE 23:33:11 89° WNW 23:33:15 88° SW
Meteor 1-22 Rocket 4.0 23:29:17 10° N 23:34:38 90° WNW 23:34:40 89° S
SL-8 Rocket 4.4 23:30:48 10° NNW 23:36:53 55° W 23:38:28 44° SW
USA 229 DEB 4.3 23:30:22 10° NNW 23:37:17 49° NE 23:39:05 41° E
USA 229 4.3 23:30:29 10° NNW 23:37:23 48° NE 23:39:12 40° E
H-2A R/B 2.8 23:40:27 38° WSW 23:40:45 39° W 23:45:26 10° NNW
Cosmos 2366 rocket 4.0 23:36:37 10° NNW 23:42:42 68° W 23:43:33 60° SW
Cosmos 158 Rocket 4.1 23:46:05 76° NW 23:46:05 76° NW 23:51:18 10° NNE
Cosmos 1697 Rocket 2.7 23:45:34 10° NNW 23:50:56 71° W 23:50:56 71° W
